Theta_e
321 319 318 314 312 312 311 314 316 316 316 315 315 316 316 314 313 313 311 310 311 311 310 310 312 317 319 318 316 316 316 315 314 314 314 314 314 314 313 313 312 311
320 319 316 312 312 311 309 313 317 317 316 314 313 314 314 313 313 313 311 309 309 308 306 305 308 314 317 316 315 315 314 313 313 312 312 311 310 309 308 307 307 306
320 319 315 311 312 311 310 314 317 317 316 313 311 312 314 314 314 313 312 309 308 307 306 304 304 309 313 314 314 313 312 311 311 310 308 307 306 305 305 304 303 303
320 320 316 312 311 310 311 315 316 316 316 313 310 310 311 313 314 313 312 310 309 308 307 305 303 304 306 308 309 309 309 310 310 308 306 305 305 305 305 305 306 306
320 321 316 312 312 310 312 315 314 314 314 312 311 310 308 309 311 312 311 310 310 310 310 308 306 303 303 303 304 306 307 308 309 308 307 306 306 306 307 307 307 308
320 320 316 312 313 312 313 315 312 308 309 310 311 310 308 307 308 309 310 311 311 311 311 311 310 307 305 304 304 304 305 307 308 308 308 308 307 306 306 308 308 308
319 320 317 314 314 313 314 316 313 307 306 310 312 312 309 307 306 307 308 309 311 311 312 312 312 312 309 307 306 305 305 305 305 307 308 308 308 306 306 306 307 307
319 319 319 316 315 314 315 317 316 309 306 310 314 313 311 309 307 307 307 307 309 310 311 312 313 313 312 310 308 307 307 306 305 305 305 306 307 307 307 307 306 306
319 319 319 318 316 315 315 317 318 313 308 310 314 315 314 312 309 308 308 308 308 309 309 310 311 312 313 312 311 310 309 309 308 307 307 306 306 306 306 307 308 307
319 318 318 317 316 316 316 317 319 316 312 313 315 316 316 315 313 312 311 310 310 310 310 309 309 310 311 312 312 312 312 312 311 311 310 309 308 307 307 307 308 308
319 318 317 317 317 317 317 318 319 318 315 314 315 316 316 317 316 316 315 314 313 313 312 312 312 311 311 311 311 312 312 313 313 313 312 312 311 310 309 308 308 308
320 319 318 317 318 319 318 318 319 319 317 315 315 315 316 317 317 317 317 317 316 315 314 314 314 314 313 312 312 312 312 312 312 312 312 312 312 312 312 311 311 310
321 321 320 319 319 319 319 319 319 319 318 317 316 316 315 316 318 318 318 318 317 316 315 315 315 315 315 314 314 314 314 313 313 313 313 313 313 313 313 313 312 312
321 321 321 320 320 319 320 319 319 319 318 318 317 316 316 317 318 318 318 318 318 318 317 317 316 316 316 316 316 316 316 316 315 315 315 315 315 315 314 314 313 312
321 320 320 320 319 319 319 319 319 319 318 318 318 317 317 318 318 319 318 318 318 318 318 318 318 317 317 317 317 317 316 316 316 316 316 317 317 317 317 316 315 314
321 320 320 320 320 319 319 319 319 319 318 318 318 318 318 318 319 319 319 319 319 318 318 319 318 317 318 317 315 315 315 315 316 317 317 317 317 318 318 317 317 316
321 321 320 320 319 319 320 319 319 319 319 318 319 318 319 319 319 319 319 319 318 317 317 318 318 317 316 316 314 313 314 316 317 318 318 318 318 318 318 318 317 317
320 320 320 320 319 319 319 320 320 319 319 319 319 319 319 319 319 319 319 317 316 315 315 316 317 316 315 316 316 315 316 317 318 319 319 319 318 318 318 318 317 317
320 320 319 319 319 319 319 319 319 319 319 319 318 318 317 317 318 318 317 316 315 315 314 315 317 317 316 317 317 318 318 319 319 320 320 319 319 319 318 318 317 317
315 318 320 320 319 318 318 318 318 318 318 318 318 317 316 316 316 316 315 314 314 314 315 315 317 317 318 318 318 318 318 318 318 318 318 318 318 318 318 318 317 317
307 310 314 318 320 320 319 319 318 317 318 318 317 317 317 316 316 316 314 314 314 315 316 317 318 318 318 318 317 316 315 314 314 314 314 315 315 316 317 317 317 317
305 305 307 311 317 320 321 320 320 319 319 319 319 318 318 318 317 316 315 316 316 317 318 318 318 318 318 318 316 314 314 314 314 314 314 314 314 314 315 316 316 316
306 306 305 306 309 315 319 319 319 319 318 317 318 317 317 318 318 317 317 317 317 316 316 315 316 316 316 316 316 315 315 315 315 315 315 315 314 313 314 314 315 314
305 305 306 306 306 309 314 315 314 314 314 314 315 316 316 316 315 314 313 311 310 310 310 310 311 311 312 313 313 314 314 314 315 315 315 315 313 313 312 312 312 311
306 305 305 306 306 307 310 311 311 311 311 312 313 312 311 310 308 307 305 304 304 304 304 304 305 306 307 309 310 310 311 312 314 315 314 313 312 311 310 309 309 308
305 305 305 305 306 307 308 308 308 308 308 308 308 307 306 305 304 303 303 303 303 303 303 303 303 303 304 305 307 309 311 312 314 314 313 312 310 309 308 306 306 306
Wind_Speed
15 14 12 12 13 13 11 10 8 10 10 7 7 8 7 6 6 4 4 4 5 5 5 5 5 6 6 7 7 7 7 8 10 11 11 12 13 13 13 12 11 12
16 15 13 13 14 13 13 11 8 8 9 7 8 8 8 6 5 4 4 5 6 6 7 7 7 7 7 7 7 6 7 9 10 10 10 11 12 12 12 12 12 13
17 16 14 14 15 13 14 13 9 8 7 7 8 8 8 7 5 4 4 5 6 6 7 8 8 7 6 6 5 6 8 9 10 10 9 10 11 11 12 13 14 15
18 17 14 14 15 12 11 12 10 8 7 6 7 7 8 7 6 5 5 5 6 6 7 8 8 8 7 6 6 6 8 9 8 9 9 10 11 12 13 13 14 15
18 18 15 13 14 10 7 10 11 10 9 7 7 7 7 7 7 6 6 6 6 6 6 7 7 8 8 8 7 8 8 9 8 8 9 11 12 11 12 12 13 13
19 18 15 13 13 10 7 9 11 11 10 9 8 8 8 7 7 7 6 6 5 5 5 5 6 6 7 7 7 8 8 9 8 8 9 11 11 11 10 10 10 10
20 18 15 14 13 10 8 9 11 11 10 9 10 10 9 8 7 7 7 6 5 4 4 4 4 4 5 5 6 6 6 7 7 8 8 9 9 9 9 8 8 8
20 19 17 15 13 11 11 11 12 12 11 11 11 10 9 9 8 7 7 6 5 4 4 3 2 2 3 3 3 3 4 4 5 6 6 6 6 7 6 6 6 6
18 18 17 15 13 12 13 13 13 13 13 12 12 12 10 10 9 8 7 7 6 5 4 4 3 3 2 2 2 2 1 2 2 3 3 4 4 4 4 4 4 4
16 16 15 14 14 13 13 15 15 14 14 14 13 13 12 11 10 9 8 7 7 6 5 4 4 4 4 4 3 3 3 2 2 2 2 2 3 3 3 4 4 4
14 14 15 15 14 13 13 16 18 16 15 15 15 15 13 13 12 10 8 7 7 7 6 5 4 4 4 5 5 5 4 4 4 4 4 4 5 5 4 5 5 5
13 14 15 16 16 15 15 17 20 19 17 16 17 16 16 15 13 11 9 8 8 8 8 7 5 4 4 4 5 6 6 6 6 6 7 7 7 8 8 8 7 7
10 14 16 16 16 15 15 17 20 21 19 18 18 18 16 16 14 12 11 11 10 9 7 6 5 5 5 5 5 6 7 7 8 8 9 9 9 9 10 11 11 10
8 11 13 15 15 14 14 16 20 22 21 20 19 19 17 15 14 13 13 11 9 8 7 7 6 5 5 6 7 8 10 10 10 10 10 11 11 10 11 12 13 14
8 10 11 13 14 15 15 16 19 21 22 21 20 20 18 15 13 13 12 10 9 8 9 8 8 8 7 6 7 9 11 12 12 12 13 12 12 12 12 13 14 16
9 9 10 12 14 15 16 17 18 19 21 21 20 19 16 13 12 11 11 9 7 7 7 7 8 9 8 8 10 11 12 12 13 14 13 12 12 12 12 12 13 15
9 9 9 11 11 12 13 14 15 17 18 18 18 17 14 12 11 10 10 8 6 6 6 6 8 9 8 10 13 13 12 12 13 12 11 11 12 12 12 12 12 14
9 10 10 10 10 11 11 11 12 14 15 16 16 15 12 11 10 11 12 11 11 13 13 11 11 11 10 11 12 11 12 12 11 11 10 11 12 12 12 11 11 13
8 9 10 11 11 11 11 10 11 13 14 14 14 12 11 11 13 14 14 14 14 15 16 16 16 14 12 12 10 9 9 9 9 8 9 10 10 10 11 10 10 11
7 8 9 10 11 11 12 12 13 14 15 14 13 11 12 16 19 16 14 15 15 13 14 16 16 13 12 11 9 8 7 6 6 5 6 6 7 8 8 8 8 9
10 8 8 9 9 9 10 11 12 13 15 15 14 15 16 18 17 15 13 13 13 12 11 11 10 10 11 11 10 9 8 7 5 4 4 4 6 7 7 7 8 9
12 11 9 8 9 8 8 9 10 10 12 13 14 16 16 15 14 13 12 11 10 10 9 9 9 10 11 11 11 11 9 8 7 6 4 4 5 6 7 8 8 8
10 11 11 10 9 10 9 8 8 9 10 12 13 14 13 12 11 10 10 9 9 9 10 10 10 10 10 11 11 11 11 9 8 8 7 6 5 4 3 3 4 4
10 11 11 11 11 10 11 10 9 10 11 12 13 13 12 12 12 12 11 11 10 10 9 9 9 9 9 10 10 10 10 9 9 9 8 8 6 3 2 2 2 1
10 9 7 8 10 10 8 9 9 10 11 12 13 14 15 15 15 14 14 12 11 10 8 7 7 6 7 8 8 9 9 9 10 10 10 9 7 6 6 6 5 4
12 10 6 5 6 6 6 10 12 13 14 14 15 15 16 16 15 14 13 12 11 10 9 7 6 5 5 6 7 8 9 9 10 10 10 10 9 8 9 9 8 7
Wind_Direction
175 164 161 159 153 146 144 155 159 133 123 139 151 149 148 137 125 105 82 93 99 100 105 104 115 126 124 126 128 123 118 117 117 116 117 119 121 124 126 127 129 127
171 165 163 166 164 150 136 143 151 131 122 136 150 153 152 145 131 103 81 90 94 93 97 99 113 132 137 138 138 133 130 129 125 124 125 125 125 127 128 127 129 127
174 171 168 174 178 159 134 136 147 135 125 138 147 150 155 156 151 128 103 98 96 94 94 92 100 118 133 143 141 136 134 131 127 124 123 122 122 123 123 124 126 124
184 181 179 185 188 171 138 136 148 144 137 149 153 151 156 163 167 155 135 120 110 101 98 94 94 100 107 115 122 124 122 118 116 114 110 107 109 113 115 116 118 117
196 189 188 194 192 185 159 147 156 157 151 158 163 162 161 166 175 171 157 146 134 121 112 105 101 102 102 102 108 116 116 113 111 111 106 101 101 103 106 107 109 109
200 192 193 201 198 199 194 168 167 167 158 161 171 173 170 169 176 178 171 165 158 148 136 123 114 111 110 107 107 112 116 117 116 116 112 106 104 103 103 106 109 109
199 195 199 208 204 205 211 191 182 179 171 174 181 181 178 173 173 178 180 179 179 178 169 150 136 125 121 117 112 113 117 119 118 119 118 116 115 111 109 112 114 115
202 202 206 212 208 210 219 207 196 195 191 189 188 187 186 180 173 175 182 185 185 188 192 188 179 164 144 130 125 125 125 129 129 127 126 127 129 128 126 124 119 121
211 211 213 213 209 215 224 216 205 205 205 201 196 194 191 187 180 175 181 189 190 190 198 207 214 215 207 190 178 173 170 169 164 158 151 148 152 155 157 153 141 139
214 214 216 214 211 217 227 223 215 213 213 212 208 205 204 199 192 183 181 188 197 202 207 212 222 232 237 239 236 233 233 241 249 245 235 211 198 196 196 196 185 178
219 219 220 221 223 229 234 230 224 221 220 219 217 216 217 215 208 200 196 198 206 216 219 221 228 239 251 257 259 259 257 259 264 265 268 265 252 246 240 232 225 215
232 232 231 233 239 245 243 234 228 227 226 225 225 225 225 225 221 216 216 219 220 223 225 228 229 235 250 260 266 270 270 270 272 274 275 275 270 265 258 254 249 240
240 241 240 240 243 247 244 235 230 230 230 231 233 234 234 232 229 226 225 227 228 227 226 223 221 232 246 258 273 281 281 280 282 282 279 278 277 272 266 262 257 251
243 246 243 240 242 247 245 238 234 233 234 234 234 237 240 242 242 237 231 229 228 227 226 229 236 246 259 276 286 285 283 285 287 284 280 280 279 275 271 267 264 258
260 253 243 237 241 248 250 245 239 236 237 238 235 235 241 246 247 242 240 237 230 229 236 243 247 247 254 276 284 277 274 281 289 289 284 281 277 275 274 271 269 266
274 262 250 244 242 245 249 249 244 241 241 240 237 235 239 242 241 239 239 231 222 229 242 245 245 248 254 267 272 268 266 275 286 287 284 279 275 272 270 266 266 268
277 269 260 253 247 246 248 248 246 244 241 239 238 235 233 229 224 224 223 215 220 249 262 254 247 250 259 266 265 261 260 268 276 277 277 277 273 269 267 265 264 267
283 277 268 259 251 247 247 245 242 240 235 234 233 226 218 215 213 215 219 225 241 254 260 259 253 251 256 261 259 255 255 261 265 267 271 273 272 269 265 263 263 265
289 283 276 269 259 250 245 243 238 235 233 233 228 214 211 234 242 236 231 237 245 248 249 249 247 246 248 248 245 242 244 247 252 260 266 269 271 271 267 264 263 267
317 291 278 272 266 258 252 248 245 243 239 234 227 218 229 249 255 252 247 245 244 244 241 239 236 231 227 224 218 213 212 214 224 238 250 261 269 271 270 269 268 268
6 336 300 278 266 261 256 250 247 246 243 239 236 237 242 246 247 249 250 245 240 238 232 223 212 200 197 199 195 188 187 188 195 207 231 259 272 277 277 277 276 275
24 14 348 308 276 260 251 243 237 234 236 236 234 233 234 233 231 232 233 230 227 220 203 184 177 177 182 188 189 187 188 191 198 209 227 249 268 280 281 278 278 277
5 9 7 348 306 269 251 245 241 235 230 225 222 220 218 212 206 202 199 194 188 178 164 157 163 171 178 185 190 192 194 197 205 217 226 237 251 266 272 271 272 270
341 347 355 354 336 299 266 254 244 228 215 209 206 201 190 178 170 163 155 150 146 143 144 149 157 164 173 183 188 191 193 198 205 213 220 224 224 215 159 126 132 153
323 333 337 336 331 313 274 242 216 193 183 180 178 172 163 155 150 145 139 133 129 127 130 137 150 163 173 182 187 188 191 197 200 203 207 203 189 168 143 129 124 121
307 310 312 304 302 287 228 195 184 178 172 169 168 165 158 152 149 143 134 126 118 114 115 118 127 147 167 179 186 187 187 191 193 193 193 184 167 150 137 129 125 121